This is the latest recevied weather packets stored in our database for station/object W4TJP. If no packets are shown the sender has not sent any weather packets the latest 10 day(s).
| Time | Temp. | Humidity | Pressure | Rain* | Wind** | Luminosity | Snow |
|---|---|---|---|---|---|---|---|
| 1777946168 | 15° C | 79% | 1012.1 hPa | 0 mm | - | 0 W/m² | - |
| 1777945864 | 15.56° C | 77% | 1012.3 hPa | 0 mm | - | 0 W/m² | - |
| 1777945561 | 15° C | 76% | 1012.2 hPa | 0 mm | - | 0 W/m² | - |
| 1777945258 | 14.44° C | 79% | 1012.1 hPa | 0 mm | - | 0 W/m² | - |
| 1777944955 | 14.44° C | 79% | 1012.1 hPa | 0 mm | - | 0 W/m² | - |
| 1777944653 | 14.44° C | 78% | 1012.1 hPa | 0 mm | - | 0 W/m² | - |
| 1777944350 | 14.44° C | 77% | 1012.2 hPa | 0 mm | - | 0 W/m² | - |
| 1777944047 | 15° C | 76% | 1012.1 hPa | 0 mm | - | 0 W/m² | - |
| 1777943743 | 15° C | 75% | 1012.3 hPa | 0 mm | - | 0 W/m² | - |
| 1777943441 | 15.56° C | 73% | 1012.1 hPa | 0 mm | - | 0 W/m² | - |
| 1777943136 | 15.56° C | 73% | 1012.2 hPa | 0 mm | - | 0 W/m² | - |
| 1777942833 | 16.11° C | 71% | 1012.3 hPa | 0 mm | - | 0 W/m² | - |
| 1777942529 | 16.11° C | 69% | 1012 hPa | 0 mm | - | 0 W/m² | - |
| 1777942227 | 16.67° C | 69% | 1012 hPa | 0 mm | - | 0 W/m² | - |
| 1777941923 | 16.67° C | 69% | 1011.8 hPa | 0 mm | - | 0 W/m² | - |
| 1777941620 | 17.22° C | 68% | 1011.9 hPa | 0 mm | - | 0 W/m² | - |
| 1777941317 | 17.22° C | 66% | 1011.8 hPa | 0 mm | - | 0 W/m² | - |
| 1777941015 | 17.78° C | 68% | 1011.7 hPa | 0 mm | - | 0 W/m² | - |
| 1777940715 | 18.33° C | 64% | 1011.8 hPa | 0 mm | - | 2 W/m² | - |
| 1777940415 | 18.33° C | 63% | 1011.5 hPa | 0 mm | - | 3 W/m² | - |
| 1777940111 | 18.89° C | 60% | 1011.6 hPa | 0 mm | - | 6 W/m² | - |
| 1777939808 | 19.44° C | 57% | 1011.5 hPa | 0 mm | - | 7 W/m² | - |
| 1777939506 | 19.44° C | 57% | 1011.6 hPa | 0 mm | - | 9 W/m² | - |
| 1777939203 | 20° C | 56% | 1011.8 hPa | 0 mm | - | 11 W/m² | - |
| 1777938900 | 20° C | 55% | 1011.9 hPa | 0 mm | - | 13 W/m² | - |
* Rain latest hour (hover to see other rain measurements)
** Current wind speed in m/s (hover to see current wind gust speed)